Yaogan 36 05 zu 03 xing

operational
NORAD ID: 57456 Int'l Des: 2023-106 Owner: ZZB Country: CN Constellation: yaogan
LEOCIRCULAR

Über Yaogan 36 05 zu 03 xing

Beschreibung wird geladen...

Live-Position

3D-Globus wird geladen...

Nächste Überflüge

Höhenverlauf

Altitude vs Time

uPlot chart will show altitude changes over time

Zweizeiliger Elementsatz

1 57456U 23106E 25278.21763435 .00010261 00000-0 49337-3 0 9993
2 57456 34.9930 230.3661 0006964 299.1633 60.8383 15.18031183122112
Epoch: 5. Okt. 2025 • Age: 7 hours

Aktueller Status

Höhe 517.0 km
Geschwindigkeit 7.61 km/s
Subsatellitenpunkt -32.57°S, 90.28°W
Startdatum 26. Juli 2023
Alter 2.1 years
Typ military

Technische Details

Klassifizierung Payload
Masse 300.00 kg
Trockenmasse 300.00 kg
Gesamtmasse 300.00 kg
Länge 2.50 m
Durchmesser 2.50 m
Spannweite 5.00 m
Form Box + 2 Pan
Hersteller DFHZ
Phasenstatus In Orbit
Besitzer/Staat ZZB/CN

Große Konstellationen

Loading constellations...